"Pseudo-MPEC" for P10Lo0R

Created 2019 Jan 16 12:18:23 UT using Find_Orb

Click here for an explanation of pseudo-MPECs

 
 Astrometry: 
     P10Lo0R  C2019 01 10oZ0a0cn:Ds$j6PRu31b4+yYLh@jAstrometry7ul`0!@@pZC8/ZhF51
     P10Lo0R  C2019 01 10`3K@9::]+iOEy+FsKpSj:FyN4:]D3eqMxBG76atu+#@*.g$Z]1$wF51
     P10Lo0R  C2019 01 10D^N;2^3=NOkJZnjdVWBjoTnFeKL1wiV[qKGwcredacted;[:8d_bF51
     P10Lo0R  C2019 01 10+T39H3$N_jK(`yK.v5ij'-OCQ6O9mxTZkVnJ^-:c6:J5?XfT!V5.F51
     P10Lo0R |C2019 01 12vU+*jP;8yy:c5.g%(EE\!Lb;*!8l-hlslC4click^Cg]8*Mq,(Q?807
     P10Lo0R |C2019 01 12Y:BA(D3Uj0CN.11;^Tgj])uVT(!2*PFDLAp.\:?%h'j'`8[M]r0X807
     P10Lo0R HC2019 01 124Qh:ro1Z+%Shere0nZUHa;`ChCoRVx=p'H;oy)0KRu_]9HHs#p[1691
     P10Lo0R HC2019 01 12%/[a1vVd%@i2;Ooph=;@iv8.R.6EsoTTV@Pg*/-tu#Ikskbk,)Z]691
     P10Lo0R HC2019 01 12MpQ[$a!.N,q\m_)^2tFW)l=Yca#D4MOoQ7qfor_?#W!]J:fbL`b*691
     P10Lo0R |C2019 01 15!2Zy-Oo9@fx_C/;3UFu\,^f'*?/r@u,sunj-v1_\ToQ5\,[2hBJ.807
     P10Lo0R |C2019 01 158]i3QlW8hhx$wGU2]Go^i?GlMKhj^(:N;E@s^b;6g87B$t8Ljw;c807
     P10Lo0R |C2019 01 15Li0fq%ekx#Sn9@,*=1%U]I,R2PnIFE+Lhexplanation;l_@WPs[807

Station data:
(691) Steward Observatory, Kitt Peak - Spacewatch  (N31.962174 W111.600327)
   US/Arizona.  Observer J. V. Scotti. 0.9-m f/3 reflector + CCD.
(807) Cerro Tololo Observatory, La Serena  (S30.169136 W70.805900)  Chile.
   1.5-m Ritchey-Chrétien.
(F51) Pan-STARRS 1, Haleakala  (N20.707235 W156.255910)  US/Hawaii.
   Observers N. Primak, A. Schultz, S. Watters, J. Thiel, T. Goggia. Measurer
   PS1 Science Consortium. 1.8-m Ritchey-Chrétien + CCD.

Orbital elements:  P10Lo0R
   Perihelion 2018 Jul 20.614251 +/- 3.46 TT = 14:44:31 (JD 2458320.114251)
Epoch 2019 Jan 15.0 TT = JDT 2458498.5   Earth MOID: 0.6447   AutoNEOCP
M  41.41399820 +/- 1.7              (J2000 ecliptic)
n   0.23215979 +/- 0.00534          Peri.  255.32024 +/- 0.6
a   2.62187136 +/- 0.0402           Node   149.91494 +/- 0.08
e   0.4505115 +/- 0.0112            Incl.   27.59910 +/- 0.38
P   4.25                   H 18.4   G  0.15   U  9.2  
q 1.44068806 +/- 0.00833    Q 3.80305465 +/- 0.088
From 12 observations 2019 Jan. 10-15; mean residual 0".20
Residuals in arcseconds: 
190110 F51  .00   .04-    190112 807  .39-  .01+    190112 691  .60+  .11-    
190110 F51  .04-  .02-    190112 807  .22-  .16-    190115 807  .14-  .10+    
190110 F51  .08+  .11-    190112 691  .12+  .48+    190115 807  .11+  .16-    
190110 F51  .05-  .15+    190112 691  .05+  .16-    190115 807  .02-  .05+    

Ephemerides (geocentric):
Date (UTC) HH   RA              Dec         delta   r     elong  mag " sig PA
---- -- -- --  -------------   -----------  ------ ------ -----  --- ---- ---
2019 01 16 12  10 18 43.006   +00 17 17.12  1.2875 2.1263 138.5 21.5 .477  55
2019 01 16 13  10 18 41.589   +00 17 55.87  1.2873 2.1265 138.5 21.5 .491  55
2019 01 16 14  10 18 40.169   +00 18 34.65  1.2872 2.1267 138.6 21.5 .505  55
2019 01 16 15  10 18 38.746   +00 19 13.47  1.2870 2.1269 138.6 21.5 .520  55
2019 01 16 16  10 18 37.319   +00 19 52.32  1.2869 2.1271 138.7 21.5 .534  55
2019 01 16 17  10 18 35.890   +00 20 31.21  1.2867 2.1274 138.7 21.5 .549  55
2019 01 16 18  10 18 34.457   +00 21 10.14  1.2866 2.1276 138.8 21.5 .564  54
2019 01 16 19  10 18 33.021   +00 21 49.10  1.2865 2.1278 138.8 21.5 .579  54
2019 01 16 20  10 18 31.582   +00 22 28.10  1.2863 2.1280 138.9 21.5 .594  54
2019 01 16 21  10 18 30.140   +00 23 07.13  1.2862 2.1283 138.9 21.5 .610  54
2019 01 16 22  10 18 28.695   +00 23 46.20  1.2860 2.1285 139.0 21.5 .625  54
2019 01 16 23  10 18 27.247   +00 24 25.30  1.2859 2.1287 139.0 21.5 .641  54
2019 01 17 00  10 18 25.795   +00 25 04.44  1.2858 2.1289 139.1 21.5 .657  54
2019 01 17 01  10 18 24.341   +00 25 43.61  1.2856 2.1292 139.1 21.5 .673  54
2019 01 17 02  10 18 22.883   +00 26 22.82  1.2855 2.1294 139.2 21.5 .689  54
2019 01 17 03  10 18 21.422   +00 27 02.06  1.2853 2.1296 139.2 21.5 .705  54
2019 01 17 04  10 18 19.959   +00 27 41.34  1.2852 2.1298 139.3 21.5 .722  53
2019 01 17 05  10 18 18.492   +00 28 20.66  1.2851 2.1300 139.3 21.5 .738  53
2019 01 17 06  10 18 17.022   +00 29 00.00  1.2849 2.1303 139.4 21.5 .755  53
2019 01 17 07  10 18 15.548   +00 29 39.39  1.2848 2.1305 139.4 21.5 .772  53
2019 01 17 08  10 18 14.072   +00 30 18.81  1.2847 2.1307 139.5 21.5 .789  53
2019 01 17 09  10 18 12.593   +00 30 58.26  1.2845 2.1309 139.6 21.5 .806  53
2019 01 17 10  10 18 11.110   +00 31 37.75  1.2844 2.1312 139.6 21.5 .824  53
2019 01 17 11  10 18 09.625   +00 32 17.27  1.2843 2.1314 139.7 21.5 .841  53
2019 01 17 12  10 18 08.136   +00 32 56.83  1.2841 2.1316 139.7 21.5 .859  53
2019 01 17 13  10 18 06.644   +00 33 36.43  1.2840 2.1318 139.8 21.5 .877  52
2019 01 17 14  10 18 05.150   +00 34 16.06  1.2839 2.1321 139.8 21.5 .894  52
2019 01 17 15  10 18 03.652   +00 34 55.72  1.2837 2.1323 139.9 21.5 .913  52
2019 01 17 16  10 18 02.151   +00 35 35.42  1.2836 2.1325 139.9 21.5 .931  52
2019 01 17 17  10 18 00.647   +00 36 15.15  1.2835 2.1327 140.0 21.5 .949  52
2019 01 17 18  10 17 59.140   +00 36 54.92  1.2833 2.1329 140.0 21.5 .968  52
2019 01 17 19  10 17 57.630   +00 37 34.72  1.2832 2.1332 140.1 21.5 .986  52
2019 01 17 20  10 17 56.116   +00 38 14.56  1.2831 2.1334 140.1 21.5 1.01  52
2019 01 17 21  10 17 54.600   +00 38 54.43  1.2829 2.1336 140.2 21.5 1.02  52
2019 01 17 22  10 17 53.081   +00 39 34.33  1.2828 2.1338 140.2 21.5 1.04  51
2019 01 17 23  10 17 51.558   +00 40 14.28  1.2827 2.1341 140.3 21.5 1.06  51
2019 01 18 00  10 17 50.033   +00 40 54.25  1.2825 2.1343 140.3 21.5 1.08  51
2019 01 18 01  10 17 48.505   +00 41 34.26  1.2824 2.1345 140.4 21.5 1.10  51
2019 01 18 02  10 17 46.973   +00 42 14.30  1.2823 2.1347 140.4 21.5 1.12  51
2019 01 18 03  10 17 45.438   +00 42 54.38  1.2821 2.1350 140.5 21.5 1.14  51
2019 01 18 04  10 17 43.901   +00 43 34.49  1.2820 2.1352 140.5 21.5 1.16  51
2019 01 18 05  10 17 42.360   +00 44 14.64  1.2819 2.1354 140.6 21.5 1.18  51
2019 01 18 06  10 17 40.817   +00 44 54.82  1.2818 2.1356 140.7 21.5 1.20  51
2019 01 18 07  10 17 39.270   +00 45 35.04  1.2816 2.1358 140.7 21.5 1.22  50
2019 01 18 08  10 17 37.720   +00 46 15.29  1.2815 2.1361 140.8 21.5 1.24  50
2019 01 18 09  10 17 36.168   +00 46 55.57  1.2814 2.1363 140.8 21.5 1.26  50
2019 01 18 10  10 17 34.612   +00 47 35.89  1.2812 2.1365 140.9 21.5 1.28  50
2019 01 18 11  10 17 33.053   +00 48 16.24  1.2811 2.1367 140.9 21.5 1.31  50